RADUGA 18 [-]

Last updated on Jan. 18, 2020, 4:38 a.m. UTC

1 16497U 86007A   20017.12117431 -.00000199  00000-0  00000-0 0  9998
2 16497  14.1271 339.7849 0070010 140.0541 219.1486  0.98814926122701
UTC
Height (km)
Latitude
Longitude
Inclination
Orbital Period
UTC large
Height (km)
Speed (km/s)
/
Latitude / Longitude
Inclination (degrees)
Orbital Period (minutes)
Azimuth
Elevation
Range (km)
Doppler Factor
iOS Compass Heading
iOS Angle

Next 30 passes for location: Hong Kong

Rise time Rise Azimuth (degrees) Set time Set Azimuth (degrees) Duration Max altitude (degrees)

No matching passes for this satellites